Regional Weather Roundup
Issued by NWS

Home | Current Version | Previous Version | Text Only | Print | Product List | Glossary Off
Versions: 1 2 3 4 5 6 7 8 9 10 11 12 13 14 15 16 17 18 19 20 21 22 23 24 25 26 27 28 29 30 31 32 33 34 35 36 37 38 39 40 41 42 43 44 45 46 47 48 49 50

000
ASUS45 KCYS 060810
RWRWY

WYOMING REGIONAL WEATHER ROUNDUP
NATIONAL WEATHER SERVICE CHEYENNE WY
200 AM MDT MON JUL 06 2015

NOTE:  "FAIR" INDICATES FEW OR NO CLOUDS BELOW 12,000 FEET
WITH NO SIGNIFICANT WEATHER AND/OR OBSTRUCTIONS TO VISIBILITY.

WYZ001-060900-
YELLOWSTONE NATIONAL PARK

CITY           SKY/WX    TMP DP  RH WIND       PRES   REMARKS
LK YELLOWSTONE   N/A     49  47  93 NW3       30.34R
W YELLOWSTONE  NOT AVBL

$$
WYZ002>013-054>058-071-098>099-060900-
NORTHERN WYOMING

CITY           SKY/WX    TMP DP  RH WIND       PRES   REMARKS
JACKSON        CLOUDY    54  52  94 NE6       30.29R
CODY           CLOUDY    52  50  93 N9        30.24R
GREYBULL       CLOUDY    57  53  86 NW14      30.17R
WORLAND        LGT RAIN  57  53  86 SW5       30.19R FOG
SHERIDAN       CLOUDY    56  54  93 NE3       30.21R FOG
BUFFALO        CLOUDY    54  51  90 W6        30.23F FOG
GILLETTE       CLOUDY    56  54  93 NW8       30.19S FOG
HULETT         CLOUDY    57  55  94 NE3       30.20R FOG
NEWCASTLE      DRIZZLE   55  50  82 NW8       30.15R

$$
WYZ014>020-022>026-101>103-060900-
CENTRAL WYOMING

CITY           SKY/WX    TMP DP  RH WIND       PRES   REMARKS
BIG PINEY      CLOUDY    55  49  80 NW3       30.28R
PINEDALE       LGT RAIN  52  52 100 N3        30.27F
DUBOIS         PTSUNNY   52  50  93 SW3       30.30R
LANDER         LGT RAIN  57  55  93 N5        30.23R
RIVERTON       CLOUDY    56  50  80 N12       30.24R
CASPER         LGT RAIN  54  52  93 N10       30.22R
DOUGLAS        CLOUDY    56  55  97 N10       30.20R FOG

$$
WYZ021-027>030-104>119-060900-
SOUTHERN WYOMING

CITY           SKY/WX    TMP DP  RH WIND       PRES   REMARKS
EVANSTON       FAIR      57  52  83 E6        30.26R
KEMMERER       CLOUDY    54  50  87 N8        30.28R
FORT BRIDGER   SUNNY     57  55  94 W5        30.28S
ROCK SPRINGS   CLOUDY    57  52  83 NE5       30.26R
DIXON          FAIR      53  51  94 E3        30.26S
RAWLINS        CLOUDY    58  56  93 CALM      30.23S
SARATOGA       CLOUDY    55  54  94 S5        30.25S
LARAMIE        CLOUDY    57  55  93 CALM      30.24S
CHEYENNE       LGT RAIN  58  57  97 N12       30.19S FOG
TORRINGTON     LGT RAIN  61  58  90 N3        30.12R
PINE BLUFFS    CLOUDY    59  55  88 N14       30.15R

$$


USA.gov is the U.S. government's official web portal to all federal, state and local government web resources and services.